Morgantown, WV

3:47 PM EST on December 12, 2017 (GMT -0500)
Morgantown Municipal-Hart

Weather History for KMGW - August, 2013

Change the Weather History Date:

Friday, August 2, 2013

  Actual Average Record
Temperature  
Mean Temperature 71 °F 73 °F  
Max Temperature 80 °F 83 °F 97 °F (1975)
Min Temperature 62 °F 63 °F 45 °F (1895)
Degree Days  
Heating Degree Days 0 0  
Month to date heating degree days 0 0  
Since 1 June heating degree days 12 34  
Since 1 July heating degree days 1 3  
Cooling Degree Days 6 8  
Month to date cooling degree days 14 16  
Year to date cooling degree days 608 500  
Since 1 June cooling degree days 462 433  
Growing Degree Days 21 (Base 50)    
Moisture  
Dew Point 59 °F    
Average Humidity 69    
Maximum Humidity 93    
Minimum Humidity 45    
Precipitation  
Precipitation T in 0.12 in 1.77 in (1875)
Month to date precipitation 0.13 0.25  
Year to date precipitation 24.19 26.17  
Sea Level Pressure  
Sea Level Pressure 29.98 in    
Wind  
Wind Speed 5 mph (SSW)    
Max Wind Speed 12 mph    
Max Gust Speed 21 mph    
Visibility 10 miles    
Events Rain    
T = Trace of Precipitation, MM = Missing Value Source: NWS Daily Summary

Daily Weather History Graph

Daily Weather History Graph

Search for Another Location

Airport or City:

Trip Planner

Search our weather history database for the weather conditions in past years. The results will help you decide how hot, cold, wet, or windy it might be!

Date:

Astronomy

Aug. 02, 2013 Rise Set
Actual Time 6:20 AM EDT 8:31 PM EDT
Civil Twilight 5:50 AM EDT 9:01 PM EDT
Nautical Twilight 5:13 AM EDT 9:37 PM EDT
Astronomical Twilight 4:32 AM EDT 10:17 PM EDT
Moon 2:39 AM EDT (8/2) 5:27 PM EDT (8/2)
Length of Visible Light 15h 11m
Length of Day
14h 11m
Waning Crescent, 16% of the Moon is Illuminated
Aug 2
Waning Crescent
Aug 6
New
Aug 14
First Quarter
Aug 20
Full
Aug 28
Last Quarter

Hourly Weather History & Observations

Time (EDT) Temp. Dew Point Humidity Pressure Visibility Wind Dir Wind Speed Gust Speed Precip Events Conditions
12:53 AM 64.0 °F 62.1 °F 93% 29.95 in 10.0 mi South 3.5 mph - N/A   Scattered Clouds
1:53 AM 64.0 °F 61.0 °F 90% 29.94 in 10.0 mi South 3.5 mph - N/A   Scattered Clouds
2:53 AM 63.0 °F 61.0 °F 93% 29.94 in 8.0 mi SSW 3.5 mph - N/A   Scattered Clouds
3:53 AM 63.0 °F 61.0 °F 93% 29.94 in 9.0 mi Calm Calm - 0.00 in Rain Light Rain
4:53 AM 64.0 °F 61.0 °F 90% 29.94 in 10.0 mi SSE 5.8 mph - 0.00 in   Overcast
5:53 AM 63.0 °F 61.0 °F 93% 29.96 in 8.0 mi SSE 3.5 mph - 0.00 in   Mostly Cloudy
6:53 AM 63.0 °F 61.0 °F 93% 29.98 in 8.0 mi Calm Calm - N/A   Scattered Clouds
7:53 AM 64.0 °F 62.1 °F 93% 30.00 in 8.0 mi Calm Calm - N/A   Scattered Clouds
8:53 AM 68.0 °F 63.0 °F 84% 30.01 in 10.0 mi South 3.5 mph - N/A   Clear
9:53 AM 70.0 °F 60.1 °F 71% 29.99 in 10.0 mi Variable 3.5 mph - N/A   Clear
10:53 AM 73.0 °F 59.0 °F 61% 30.00 in 10.0 mi Variable 4.6 mph - N/A   Clear
11:53 AM 75.0 °F 57.9 °F 55% 30.01 in 10.0 mi Variable 5.8 mph - N/A   Mostly Cloudy
12:53 PM 75.9 °F 55.9 °F 50% 30.01 in 10.0 mi Variable 5.8 mph - N/A   Mostly Cloudy
1:53 PM 77.0 °F 55.9 °F 48% 30.01 in 10.0 mi SW 6.9 mph - N/A   Scattered Clouds
2:53 PM 78.1 °F 55.9 °F 46% 30.02 in 10.0 mi WSW 6.9 mph - N/A   Scattered Clouds
3:53 PM 79.0 °F 55.9 °F 45% 30.02 in 10.0 mi Variable 6.9 mph - N/A   Mostly Cloudy
4:53 PM 78.1 °F 55.9 °F 46% 29.99 in 10.0 mi SSW 4.6 mph - N/A   Scattered Clouds
5:53 PM 78.1 °F 57.0 °F 48% 29.98 in 10.0 mi SW 8.1 mph - N/A   Partly Cloudy
6:53 PM 78.1 °F 57.0 °F 48% 29.98 in 10.0 mi WSW 8.1 mph - N/A   Partly Cloudy
7:53 PM 75.9 °F 59.0 °F 56% 29.97 in 10.0 mi SW 6.9 mph - N/A   Clear
8:53 PM 72.0 °F 60.1 °F 66% 29.97 in 10.0 mi South 3.5 mph - N/A   Clear
9:53 PM 71.1 °F 60.1 °F 68% 30.00 in 10.0 mi South 4.6 mph - N/A   Clear
10:53 PM 70.0 °F 60.1 °F 71% 30.01 in 10.0 mi South 4.6 mph - N/A   Clear
11:53 PM 70.0 °F 61.0 °F 73% 29.99 in 10.0 mi SSW 5.8 mph - N/A   Clear